Location: Newark
(39.5667°N, 8.9833°E)
Time: 01:02:33
(UTC+00:00)

Transit 2A - Pass Details

Date: 23 October 2019
Orbit: 601 x 957 km, 66.7° (Epoch: 11 November)

Event Time Altitude Azimuth Distance (km) Brightness Sun altitude
Rises 18:35:55 0° 233° (SW) 3,356 10.0 -24.1°
Reaches altitude 10° 18:38:42 10° 243° (WSW) 2,364 9.3 -24.6°
Maximum altitude 18:43:29 32° 306° (NW) 1,270 7.6 -25.6°
Enters shadow 18:47:44 11° 8° (N) 2,107 8.2 -26.4°
Drops below altitude 10° 18:47:54 10° 9° (N) 2,165 - -26.4°
Sets 18:50:22 0° 20° (NNE) 3,031 - -26.9°
